| time (UTC) | temp F | wind direction | speed MPH | gust MPH | rain 1hr in | rain 24hr in | rain mn in | humidity % | barometer mb |
| 20260507201032 | 59 | 286 | 3.0 | 7.0 | 0.00 | 0.00 | 0.00 | 2 | |
| 20260507200532 | 59 | 289 | 2.0 | 6.0 | 0.00 | 0.00 | 0.00 | 2 | |
| 20260507200032 | 58 | 292 | 2.0 | 7.0 | 0.00 | 0.00 | 0.00 | 2 | |
| 20260507195532 | 58 | 327 | 3.0 | 6.0 | 0.00 | 0.00 | 0.00 | 2 | |
| 20260507195033 | 58 | 318 | 0.0 | 6.0 | 0.00 | 0.00 | 0.00 | 2 | |
| 20260507194532 | 58 | 317 | 1.0 | 7.0 | 0.00 | 0.00 | 0.00 | 2 | |
| 20260507194032 | 58 | 316 | 0.0 | 0.0 | 0.00 | 0.00 | 0.00 | 2 | |
| 20260507193532 | 58 | 316 | 0.0 | 6.0 | 0.00 | 0.00 | 0.00 | 2 | |
| 20260507193032 | 58 | 296 | 3.0 | 6.0 | 0.00 | 0.00 | 0.00 | 2 | |
| 20260507192532 | 58 | 289 | 1.0 | 6.0 | 0.00 | 0.00 | 0.00 | 2 | |
| 20260507192032 | 58 | 320 | 5.0 | 7.0 | 0.00 | 0.00 | 0.00 | 2 | |
| 20260507191532 | 59 | 295 | 0.0 | 6.0 | 0.00 | 0.00 | 0.00 | 2 | |
| 20260507191032 | 58 | 296 | 5.0 | 7.0 | 0.00 | 0.00 | 0.00 | 2 | |
| 20260507190533 | 59 | 276 | 1.0 | 8.0 | 0.00 | 0.00 | 0.00 | 2 | |
| 20260507190033 | 61 | 210 | 0.0 | 3.0 | 0.00 | 0.00 | 0.00 | 2 | |
| 20260507185532 | 58 | 268 | 2.0 | 6.0 | 0.00 | 0.00 | 0.00 | 2 | |
| 20260507185033 | 58 | 278 | 3.0 | 8.0 | 0.00 | 0.00 | 0.00 | 2 | |
| 20260507184532 | 60 | 315 | 2.0 | 6.0 | 0.00 | 0.00 | 0.00 | 2 | |
| 20260507184032 | 58 | 348 | 3.0 | 6.0 | 0.00 | 0.00 | 0.00 | 2 | |
| 20260507183532 | 57 | 237 | 0.0 | 5.0 | 0.00 | 0.00 | 0.00 | 2 | |
| 20260507183033 | 58 | 290 | 3.0 | 12.0 | 0.00 | 0.00 | 0.00 | 2 | |
| 20260507182532 | 58 | 288 | 7.0 | 10.0 | 0.00 | 0.00 | 0.00 | 2 | |
| 20260507182033 | 61 | 320 | 7.0 | 9.0 | 0.00 | 0.00 | 0.00 | 2 | |
| 20260507181532 | 61 | 275 | 3.0 | 10.0 | 0.00 | 0.00 | 0.00 | 2 | |
| 20260507181033 | 59 | 290 | 5.0 | 8.0 | 0.00 | 0.00 | 0.00 | 2 | |
| 20260507180533 | 60 | 277 | 5.0 | 8.0 | 0.00 | 0.00 | 0.00 | 2 | |
| 20260507180032 | 59 | 286 | 6.0 | 8.0 | 0.00 | 0.00 | 0.00 | 2 | |
| 20260507175532 | 58 | 254 | 6.0 | 8.0 | 0.00 | 0.00 | 0.00 | 2 | |
| 20260507175032 | 58 | 292 | 5.0 | 7.0 | 0.00 | 0.00 | 0.00 | 2 | |
| 20260507174532 | 59 | 279 | 4.0 | 7.0 | 0.00 | 0.00 | 0.00 | 2 | |
| 20260507174032 | 59 | 320 | 4.0 | 8.0 | 0.00 | 0.00 | 0.00 | 2 | |
| 20260507173532 | 59 | 268 | 6.0 | 9.0 | 0.00 | 0.00 | 0.00 | 2 | |
| 20260507173032 | 60 | 275 | 4.0 | 7.0 | 0.00 | 0.00 | 0.00 | 2 | |
| 20260507172532 | 60 | 276 | 4.0 | 7.0 | 0.00 | 0.00 | 0.00 | 2 | |
| 20260507172032 | 59 | 220 | 2.0 | 9.0 | 0.00 | 0.00 | 0.00 | 2 | |
| 20260507171532 | 59 | 258 | 7.0 | 9.0 | 0.00 | 0.00 | 0.00 | 2 | |
| 20260507171032 | 60 | 251 | 3.0 | 7.0 | 0.00 | 0.00 | 0.00 | 2 | |
| 20260507170532 | 59 | 230 | 5.0 | 7.0 | 0.00 | 0.00 | 0.00 | 2 | |
| 20260507170032 | 57 | 279 | 8.0 | 9.0 | 0.00 | 0.00 | 0.00 | 2 | |
| 20260507165533 | 57 | 258 | 7.0 | 9.0 | 0.00 | 0.00 | 0.00 | 2 | |
| 20260507165033 | 59 | 283 | 3.0 | 8.0 | 0.00 | 0.00 | 0.00 | 2 | |
| 20260507164532 | 57 | 286 | 6.0 | 9.0 | 0.00 | 0.00 | 0.00 | 2 | |
| 20260507164032 | 58 | 268 | 5.0 | 8.0 | 0.00 | 0.00 | 0.00 | 2 | |
| 20260507163532 | 58 | 284 | 3.0 | 6.0 | 0.00 | 0.00 | 0.00 | 2 | |
| 20260507163032 | 57 | 286 | 5.0 | 8.0 | 0.00 | 0.00 | 0.00 | 2 | |
| 20260507162532 | 56 | 241 | 6.0 | 9.0 | 0.00 | 0.00 | 0.00 | 2 | |
| 20260507162032 | 57 | 277 | 2.0 | 8.0 | 0.00 | 0.00 | 0.00 | 2 | |
| 20260507161532 | 55 | 287 | 5.0 | 8.0 | 0.00 | 0.00 | 0.00 | 2 | |
| 20260507161032 | 57 | 283 | 4.0 | 7.0 | 0.00 | 0.00 | 0.00 | 2 | |
| 20260507160532 | 57 | 253 | 2.0 | 6.0 | 0.00 | 0.00 | 0.00 | 2 | |
| 20260507160032 | 56 | 176 | 2.0 | 7.0 | 0.00 | 0.00 | 0.00 | 2 | |
| 20260507155532 | 56 | 295 | 5.0 | 7.0 | 0.00 | 0.00 | 0.00 | 2 | |
| 20260507155033 | 56 | 258 | 1.0 | 6.0 | 0.00 | 0.00 | 0.00 | 2 | |
| 20260507154532 | 55 | 295 | 1.0 | 7.0 | 0.00 | 0.00 | 0.00 | 2 | |
| 20260507154032 | 54 | 155 | 0.0 | 0.0 | 0.00 | 0.00 | 0.00 | 2 | |
| 20260507153532 | 55 | 155 | 0.0 | 0.0 | 0.00 | 0.00 | 0.00 | 2 | |
| 20260507153032 | 57 | 155 | 0.0 | 0.0 | 0.00 | 0.00 | 0.00 | 2 | |
| 20260507152532 | 55 | 155 | 0.0 | 6.0 | 0.00 | 0.00 | 0.00 | 2 | |
| 20260507152032 | 56 | 257 | 5.0 | 7.0 | 0.00 | 0.00 | 0.00 | 2 | |
| 20260507151533 | 55 | 278 | 0.0 | 6.0 | 0.00 | 0.00 | 0.00 | 2 | |
| 20260507151032 | 54 | 250 | 0.0 | 5.0 | 0.00 | 0.00 | 0.00 | 2 | |
| 20260507150532 | 53 | 264 | 5.0 | 8.0 | 0.00 | 0.00 | 0.00 | 2 | |
| 20260507150032 | 55 | 284 | 3.0 | 6.0 | 0.00 | 0.00 | 0.00 | 2 | |
| 20260507145533 | 54 | 14 | 3.0 | 8.0 | 0.00 | 0.00 | 0.00 | 2 | |
| 20260507145032 | 54 | 273 | 5.0 | 8.0 | 0.00 | 0.00 | 0.00 | 2 | |
| 20260507144532 | 54 | 323 | 4.0 | 7.0 | 0.00 | 0.00 | 0.00 | 2 | |
| 20260507144032 | 53 | 337 | 5.0 | 6.0 | 0.00 | 0.00 | 0.00 | 2 | |
| 20260507143532 | 54 | 287 | 4.0 | 6.0 | 0.00 | 0.00 | 0.00 | 2 | |
| 20260507143033 | 53 | 312 | 1.0 | 7.0 | 0.00 | 0.00 | 0.00 | 2 | |
| 20260507142532 | 54 | 253 | 4.0 | 6.0 | 0.00 | 0.00 | 0.00 | 2 | |
| 20260507142032 | 53 | 234 | 0.0 | 7.0 | 0.00 | 0.00 | 0.00 | 2 | |
| 20260507141532 | 53 | 261 | 2.0 | 7.0 | 0.00 | 0.00 | 0.00 | 2 | |
| 20260507141032 | 52 | 296 | 2.0 | 8.0 | 0.00 | 0.00 | 0.00 | 2 | |
| 20260507140533 | 52 | 243 | 2.0 | 7.0 | 0.00 | 0.00 | 0.00 | 2 | |
| 20260507140032 | 52 | 130 | 0.0 | 0.0 | 0.00 | 0.00 | 0.00 | 2 | |
| 20260507135532 | 52 | 130 | 0.0 | 0.0 | 0.00 | 0.00 | 0.00 | 2 | |
| 20260507135032 | 52 | 130 | 0.0 | 0.0 | 0.00 | 0.00 | 0.00 | 2 | |
| 20260507134532 | 52 | 130 | 1.0 | 3.0 | 0.00 | 0.00 | 0.00 | 2 | |
| 20260507134033 | 51 | 179 | 0.0 | 0.0 | 0.00 | 0.00 | 0.00 | 2 | |
| 20260507133532 | 51 | 179 | 0.0 | 0.0 | 0.00 | 0.00 | 0.00 | 2 | |
| 20260507133032 | 51 | 179 | 0.0 | 0.0 | 0.00 | 0.00 | 0.00 | 2 | |
| 20260507132532 | 51 | 179 | 0.0 | 6.0 | 0.00 | 0.00 | 0.00 | 2 | |
| 20260507132032 | 50 | 226 | 0.0 | 0.0 | 0.00 | 0.00 | 0.00 | 2 | |
| 20260507131532 | 50 | 226 | 1.0 | 7.0 | 0.00 | 0.00 | 0.00 | 2 | |
| 20260507131032 | 49 | 203 | 4.0 | 7.0 | 0.00 | 0.00 | 0.00 | 2 | |
| 20260507130533 | 49 | 215 | 5.0 | 7.0 | 0.00 | 0.00 | 0.00 | 2 | |
| 20260507130033 | 49 | 186 | 0.0 | 0.0 | 0.00 | 0.00 | 0.00 | 2 | |
| 20260507125532 | 48 | 197 | 3.0 | 6.0 | 0.00 | 0.00 | 0.00 | 2 | |
| 20260507125032 | 48 | 192 | 0.0 | 5.0 | 0.00 | 0.00 | 0.00 | 2 | |
| 20260507124532 | 48 | 206 | 0.0 | 2.0 | 0.00 | 0.00 | 0.00 | 2 | |
| 20260507124032 | 47 | 210 | 0.0 | 3.0 | 0.00 | 0.00 | 0.00 | 2 | |
| 20260507123532 | 47 | 174 | 0.0 | 2.0 | 0.00 | 0.00 | 0.00 | 2 | |
| 20260507123032 | 46 | 196 | 0.0 | 0.0 | 0.00 | 0.00 | 0.00 | 2 | |
| 20260507122532 | 45 | 196 | 0.0 | 2.0 | 0.00 | 0.00 | 0.00 | 2 | |
| 20260507122032 | 45 | 178 | 0.0 | 3.0 | 0.00 | 0.00 | 0.00 | 2 | |
| 20260507121532 | 44 | 240 | 0.0 | 0.0 | 0.00 | 0.00 | 0.00 | 2 | |
| 20260507121033 | 44 | 240 | 0.0 | 0.0 | 0.00 | 0.00 | 0.00 | 2 | |
| 20260507120532 | 43 | 240 | 0.0 | 0.0 | 0.00 | 0.00 | 0.00 | 2 | |
| 20260507120032 | 42 | 240 | 0.0 | 0.0 | 0.00 | 0.00 | 0.00 | 2 | |
| 20260507115533 | 42 | 240 | 0.0 | 0.0 | 0.00 | 0.00 | 0.00 | 2 | |
| 20260507115032 | 41 | 240 | 0.0 | 0.0 | 0.00 | 0.00 | 0.00 | 2 | |
| 20260507114532 | 40 | 240 | 0.0 | 0.0 | 0.00 | 0.00 | 0.00 | 2 | |
| 20260507114032 | 40 | 240 | 0.0 | 0.0 | 0.00 | 0.00 | 0.00 | 2 | |
| 20260507113532 | 40 | 240 | 0.0 | 0.0 | 0.00 | 0.00 | 0.00 | 2 | |
| 20260507113033 | 40 | 240 | 0.0 | 0.0 | 0.00 | 0.00 | 0.00 | 2 | |
| 20260507112532 | 40 | 240 | 0.0 | 0.0 | 0.00 | 0.00 | 0.00 | 2 | |
| 20260507112033 | 40 | 240 | 0.0 | 0.0 | 0.00 | 0.00 | 0.00 | 2 | |
| 20260507111532 | 39 | 240 | 0.0 | 0.0 | 0.00 | 0.00 | 0.00 | 2 | |
| 20260507111032 | 38 | 240 | 0.0 | 0.0 | 0.00 | 0.00 | 0.00 | 2 | |
| 20260507110532 | 38 | 240 | 0.0 | 0.0 | 0.00 | 0.00 | 0.00 | 2 | |
| 20260507110033 | 36 | 240 | 0.0 | 0.0 | 0.00 | 0.00 | 0.00 | 2 | |
| 20260507105532 | 36 | 240 | 0.0 | 0.0 | 0.00 | 0.00 | 0.00 | 2 | |
| 20260507105032 | 36 | 240 | 0.0 | 0.0 | 0.00 | 0.00 | 0.00 | 2 | |
| 20260507104532 | 36 | 240 | 0.0 | 0.0 | 0.00 | 0.00 | 0.00 | 2 | |
| 20260507104032 | 36 | 240 | 0.0 | 0.0 | 0.00 | 0.00 | 0.00 | 2 | |
| 20260507103533 | 36 | 240 | 0.0 | 0.0 | 0.00 | 0.00 | 0.00 | 2 | |
| 20260507103032 | 36 | 240 | 0.0 | 0.0 | 0.00 | 0.00 | 0.00 | 2 | |
| 20260507102532 | 36 | 240 | 0.0 | 0.0 | 0.00 | 0.00 | 0.00 | 2 | |
| 20260507102032 | 36 | 240 | 0.0 | 0.0 | 0.00 | 0.00 | 0.00 | 2 | |
| 20260507101532 | 36 | 240 | 0.0 | 0.0 | 0.00 | 0.00 | 0.00 | 2 | |
| 20260507101032 | 37 | 240 | 0.0 | 0.0 | 0.00 | 0.00 | 0.00 | 2 | |
| 20260507100532 | 37 | 240 | 0.0 | 0.0 | 0.00 | 0.00 | 0.00 | 2 | |
| 20260507100032 | 37 | 240 | 0.0 | 0.0 | 0.00 | 0.00 | 0.00 | 2 | |
| 20260507095532 | 37 | 240 | 0.0 | 0.0 | 0.00 | 0.00 | 0.00 | 2 | |
| 20260507095033 | 37 | 240 | 0.0 | 0.0 | 0.00 | 0.00 | 0.00 | 2 | |
| 20260507094532 | 37 | 240 | 0.0 | 0.0 | 0.00 | 0.00 | 0.00 | 2 | |
| 20260507094032 | 37 | 240 | 0.0 | 0.0 | 0.00 | 0.00 | 0.00 | 2 | |
| 20260507093532 | 37 | 240 | 0.0 | 0.0 | 0.00 | 0.00 | 0.00 | 2 | |
| 20260507093032 | 37 | 240 | 0.0 | 0.0 | 0.00 | 0.00 | 0.00 | 2 | |
| 20260507092533 | 37 | 240 | 0.0 | 0.0 | 0.00 | 0.00 | 0.00 | 2 | |
| 20260507092032 | 38 | 240 | 0.0 | 0.0 | 0.00 | 0.00 | 0.00 | 2 | |
| 20260507091532 | 38 | 240 | 0.0 | 0.0 | 0.00 | 0.00 | 0.00 | 2 | |
| 20260507091032 | 38 | 240 | 0.0 | 0.0 | 0.00 | 0.00 | 0.00 | 2 | |
| 20260507090532 | 38 | 240 | 0.0 | 0.0 | 0.00 | 0.00 | 0.00 | 2 | |
| 20260507090032 | 38 | 240 | 0.0 | 0.0 | 0.00 | 0.00 | 0.00 | 2 | |
| 20260507085532 | 38 | 240 | 0.0 | 0.0 | 0.00 | 0.00 | 0.00 | 2 | |
| 20260507085032 | 38 | 240 | 0.0 | 0.0 | 0.00 | 0.00 | 0.00 | 2 | |
| 20260507084533 | 39 | 240 | 0.0 | 0.0 | 0.00 | 0.00 | 0.00 | 2 | |
| 20260507084032 | 39 | 240 | 0.0 | 0.0 | 0.00 | 0.00 | 0.00 | 2 | |
| 20260507083532 | 39 | 240 | 0.0 | 0.0 | 0.00 | 0.00 | 0.00 | 2 | |
| 20260507083033 | 39 | 240 | 0.0 | 0.0 | 0.00 | 0.00 | 0.00 | 2 | |
| 20260507082532 | 39 | 240 | 0.0 | 0.0 | 0.00 | 0.00 | 0.00 | 2 | |
| 20260507082032 | 39 | 240 | 0.0 | 0.0 | 0.00 | 0.00 | 0.00 | 2 | |
| 20260507081532 | 39 | 240 | 0.0 | 0.0 | 0.00 | 0.00 | 0.00 | 2 | |
| 20260507081032 | 40 | 240 | 0.0 | 0.0 | 0.00 | 0.00 | 0.00 | 2 | |
| 20260507080532 | 40 | 240 | 0.0 | 0.0 | 0.00 | 0.00 | 0.00 | 2 | |
| 20260507080032 | 40 | 240 | 0.0 | 0.0 | 0.00 | 0.00 | 0.00 | 2 | |
| 20260507075532 | 40 | 240 | 0.0 | 0.0 | 0.00 | 0.00 | 0.00 | 2 | |
| 20260507075032 | 41 | 240 | 0.0 | 0.0 | 0.00 | 0.00 | 0.00 | 2 | |
| 20260507074532 | 41 | 240 | 0.0 | 0.0 | 0.00 | 0.00 | 0.00 | 2 | |
| 20260507074032 | 41 | 240 | 0.0 | 0.0 | 0.00 | 0.00 | 0.00 | 2 | |
| 20260507073533 | 41 | 240 | 0.0 | 0.0 | 0.00 | 0.00 | 0.00 | 2 | |
| 20260507073032 | 42 | 240 | 0.0 | 0.0 | 0.00 | 0.00 | 0.00 | 2 | |
| 20260507072532 | 42 | 240 | 0.0 | 0.0 | 0.00 | 0.00 | 0.00 | 2 | |
| 20260507072032 | 42 | 240 | 0.0 | 0.0 | 0.00 | 0.00 | 0.00 | 2 | |
| 20260507071532 | 42 | 240 | 0.0 | 0.0 | 0.00 | 0.00 | 0.00 | 2 | |
| 20260507071032 | 42 | 240 | 0.0 | 0.0 | 0.00 | 0.00 | 0.00 | 2 | |
| 20260507070532 | 43 | 240 | 0.0 | 0.0 | 0.00 | 0.00 | 0.00 | 2 | |
| 20260507070032 | 43 | 240 | 0.0 | 0.0 | 0.00 | 0.00 | 0.00 | 2 | |
| 20260507065532 | 43 | 240 | 0.0 | 0.0 | 0.00 | 0.00 | 0.00 | 2 | |
| 20260507065032 | 44 | 240 | 0.0 | 0.0 | 0.00 | 0.00 | 0.00 | 2 | |
| 20260507064532 | 44 | 240 | 0.0 | 0.0 | 0.00 | 0.00 | 0.00 | 2 | |
| 20260507064032 | 44 | 240 | 0.0 | 0.0 | 0.00 | 0.00 | 0.00 | 2 | |
| 20260507063532 | 44 | 240 | 0.0 | 0.0 | 0.00 | 0.00 | 0.00 | 2 | |
| 20260507063032 | 44 | 240 | 0.0 | 0.0 | 0.00 | 0.00 | 0.00 | 2 | |
| 20260507062532 | 45 | 240 | 0.0 | 0.0 | 0.00 | 0.00 | 0.00 | 2 | |
| 20260507062032 | 45 | 240 | 0.0 | 0.0 | 0.00 | 0.00 | 0.00 | 2 | |
| 20260507061532 | 45 | 240 | 0.0 | 0.0 | 0.00 | 0.00 | 0.00 | 2 | |
| 20260507061032 | 45 | 240 | 0.0 | 0.0 | 0.00 | 0.00 | 0.00 | 2 | |
| 20260507060532 | 45 | 240 | 0.0 | 0.0 | 0.00 | 0.00 | 0.00 | 2 | |
| 20260507060032 | 45 | 240 | 0.0 | 0.0 | 0.00 | 0.00 | 0.00 | 2 | |
| 20260507055532 | 45 | 240 | 0.0 | 0.0 | 0.00 | 0.00 | 0.00 | 2 | |
| 20260507055032 | 46 | 240 | 0.0 | 0.0 | 0.00 | 0.00 | 0.00 | 2 | |
| 20260507054532 | 46 | 240 | 0.0 | 0.0 | 0.00 | 0.00 | 0.00 | 2 | |
| 20260507054032 | 46 | 240 | 0.0 | 0.0 | 0.00 | 0.00 | 0.00 | 2 | |
| 20260507053533 | 46 | 240 | 0.0 | 0.0 | 0.00 | 0.00 | 0.00 | 2 | |
| 20260507053032 | 46 | 240 | 0.0 | 0.0 | 0.00 | 0.00 | 0.00 | 2 | |
| 20260507052532 | 46 | 240 | 0.0 | 0.0 | 0.00 | 0.00 | 0.00 | 2 | |
| 20260507052032 | 46 | 240 | 0.0 | 0.0 | 0.00 | 0.00 | 0.00 | 2 | |
| 20260507051532 | 46 | 240 | 0.0 | 0.0 | 0.00 | 0.00 | 0.00 | 2 | |
| 20260507051032 | 46 | 240 | 0.0 | 0.0 | 0.00 | 0.00 | 0.00 | 2 | |
| 20260507050532 | 46 | 240 | 0.0 | 0.0 | 0.00 | 0.00 | 0.00 | 2 | |
| 20260507050032 | 46 | 240 | 0.0 | 0.0 | 0.00 | 0.00 | 0.00 | 2 | |
| 20260507045532 | 46 | 240 | 0.0 | 0.0 | 0.00 | 0.00 | 0.00 | 2 | |
| 20260507045032 | 46 | 240 | 0.0 | 0.0 | 0.00 | 0.00 | 0.00 | 2 | |
| 20260507044532 | 47 | 240 | 0.0 | 0.0 | 0.00 | 0.00 | 0.00 | 2 | |
| 20260507044032 | 46 | 240 | 0.0 | 0.0 | 0.00 | 0.00 | 0.00 | 2 | |
| 20260507043532 | 47 | 240 | 0.0 | 0.0 | 0.00 | 0.00 | 0.00 | 2 | |
| 20260507043032 | 47 | 240 | 0.0 | 0.0 | 0.00 | 0.00 | 0.00 | 2 | |
| 20260507042532 | 47 | 240 | 0.0 | 0.0 | 0.00 | 0.00 | 0.00 | 2 | |
| 20260507042032 | 47 | 240 | 0.0 | 0.0 | 0.00 | 0.00 | 0.00 | 2 | |
| 20260507041532 | 47 | 240 | 0.0 | 0.0 | 0.00 | 0.00 | 0.00 | 2 | |
| 20260507041032 | 47 | 240 | 0.0 | 0.0 | 0.00 | 0.00 | 0.00 | 2 | |
| 20260507040533 | 46 | 240 | 0.0 | 0.0 | 0.00 | 0.00 | 0.00 | 2 | |
| 20260507040032 | 46 | 240 | 0.0 | 0.0 | 0.00 | 0.00 | 0.00 | 2 | |
| 20260507035532 | 46 | 240 | 0.0 | 0.0 | 0.00 | 0.00 | 0.00 | 2 | |
| 20260507035032 | 47 | 240 | 0.0 | 0.0 | 0.00 | 0.00 | 0.00 | 2 | |
| 20260507034532 | 47 | 240 | 0.0 | 0.0 | 0.00 | 0.00 | 0.00 | 2 | |
| 20260507034032 | 47 | 240 | 0.0 | 0.0 | 0.00 | 0.00 | 0.00 | 2 | |
| 20260507033532 | 47 | 240 | 0.0 | 0.0 | 0.00 | 0.00 | 0.00 | 2 | |
| 20260507033032 | 47 | 240 | 0.0 | 0.0 | 0.00 | 0.00 | 0.00 | 2 | |
| 20260507032532 | 47 | 240 | 0.0 | 0.0 | 0.00 | 0.00 | 0.00 | 2 | |
| 20260507032032 | 48 | 240 | 0.0 | 0.0 | 0.00 | 0.00 | 0.00 | 2 | |
| 20260507031532 | 48 | 240 | 0.0 | 0.0 | 0.00 | 0.00 | 0.00 | 2 | |
| 20260507031032 | 47 | 240 | 0.0 | 0.0 | 0.00 | 0.00 | 0.00 | 2 | |
| 20260507030532 | 47 | 240 | 0.0 | 0.0 | 0.00 | 0.00 | 0.00 | 2 | |
| 20260507030032 | 48 | 240 | 0.0 | 0.0 | 0.00 | 0.00 | 0.00 | 2 | |
| 20260507025532 | 48 | 240 | 0.0 | 0.0 | 0.00 | 0.00 | 0.00 | 2 | |
| 20260507025032 | 48 | 240 | 0.0 | 0.0 | 0.00 | 0.00 | 0.00 | 2 | |
| 20260507024532 | 48 | 240 | 0.0 | 0.0 | 0.00 | 0.00 | 0.00 | 2 | |
| 20260507024032 | 48 | 240 | 0.0 | 0.0 | 0.00 | 0.00 | 0.00 | 2 | |
| 20260507023532 | 48 | 240 | 0.0 | 0.0 | 0.00 | 0.00 | 0.00 | 2 | |
| 20260507023032 | 48 | 240 | 0.0 | 0.0 | 0.00 | 0.00 | 0.00 | 2 | |
| 20260507022532 | 48 | 240 | 0.0 | 0.0 | 0.00 | 0.00 | 0.00 | 2 | |
| 20260507022032 | 48 | 240 | 0.0 | 0.0 | 0.00 | 0.00 | 0.00 | 2 | |
| 20260507021532 | 49 | 240 | 0.0 | 0.0 | 0.00 | 0.00 | 0.00 | 2 | |
| 20260507021031 | 48 | 240 | 0.0 | 0.0 | 0.00 | 0.00 | 0.00 | 2 | |
| 20260507020531 | 49 | 240 | 0.0 | 0.0 | 0.00 | 0.00 | 0.00 | 2 | |
| 20260507020031 | 49 | 240 | 0.0 | 0.0 | 0.00 | 0.00 | 0.00 | 2 | |
| 20260507015532 | 49 | 240 | 0.0 | 0.0 | 0.00 | 0.00 | 0.00 | 2 | |
| 20260507015032 | 49 | 240 | 0.0 | 0.0 | 0.00 | 0.00 | 0.00 | 2 | |
| 20260507014531 | 49 | 240 | 0.0 | 0.0 | 0.00 | 0.00 | 0.00 | 2 | |
| 20260507014032 | 49 | 240 | 0.0 | 0.0 | 0.00 | 0.00 | 0.00 | 2 | |
| 20260507013532 | 49 | 240 | 0.0 | 0.0 | 0.00 | 0.00 | 0.00 | 2 | |
| 20260507013032 | 49 | 240 | 0.0 | 0.0 | 0.00 | 0.00 | 0.00 | 2 | |
| 20260507012532 | 49 | 240 | 0.0 | 0.0 | 0.00 | 0.00 | 0.00 | 2 | |
| 20260507012032 | 49 | 240 | 0.0 | 0.0 | 0.00 | 0.00 | 0.00 | 2 | |
| 20260507011532 | 50 | 240 | 0.0 | 0.0 | 0.00 | 0.00 | 0.00 | 2 | |
| 20260507011032 | 50 | 240 | 0.0 | 0.0 | 0.00 | 0.00 | 0.00 | 2 | |
| 20260507010532 | 50 | 240 | 0.0 | 0.0 | 0.00 | 0.00 | 0.00 | 2 | |
| 20260507010032 | 50 | 240 | 0.0 | 0.0 | 0.00 | 0.00 | 0.00 | 2 | |
| 20260507005532 | 50 | 240 | 0.0 | 0.0 | 0.00 | 0.00 | 0.00 | 2 | |
| 20260507005032 | 50 | 240 | 0.0 | 0.0 | 0.00 | 0.00 | 0.00 | 2 | |
| 20260507004531 | 50 | 240 | 0.0 | 0.0 | 0.00 | 0.00 | 0.00 | 2 | |
| 20260507004032 | 50 | 240 | 0.0 | 0.0 | 0.00 | 0.00 | 0.00 | 2 | |
| 20260507003531 | 51 | 240 | 0.0 | 0.0 | 0.00 | 0.00 | 0.00 | 2 | |
| 20260507003032 | 51 | 240 | 0.0 | 0.0 | 0.00 | 0.00 | 0.00 | 2 | |
| 20260507002532 | 51 | 240 | 0.0 | 0.0 | 0.00 | 0.00 | 0.00 | 2 | |
| 20260507002032 | 51 | 240 | 0.0 | 0.0 | 0.00 | 0.00 | 0.00 | 2 | |
| 20260507001532 | 51 | 240 | 0.0 | 0.0 | 0.00 | 0.00 | 0.00 | 2 | |
| 20260507001032 | 51 | 240 | 0.0 | 0.0 | 0.00 | 0.00 | 0.00 | 2 | |
| 20260507000532 | 51 | 240 | 0.0 | 0.0 | 0.00 | 0.00 | 0.00 | 2 | |
| 20260507000031 | 51 | 240 | 0.0 | 0.0 | 0.00 | 0.00 | 0.00 | 2 | |
| 20260506235532 | 51 | 240 | 0.0 | 0.0 | 0.00 | 0.00 | 0.00 | 2 | |
| 20260506235032 | 52 | 240 | 0.0 | 0.0 | 0.00 | 0.00 | 0.00 | 2 | |
| 20260506234532 | 52 | 240 | 0.0 | 0.0 | 0.00 | 0.00 | 0.00 | 2 | |
| 20260506234032 | 52 | 240 | 0.0 | 0.0 | 0.00 | 0.00 | 0.00 | 2 | |
| 20260506233532 | 52 | 240 | 0.0 | 0.0 | 0.00 | 0.00 | 0.00 | 2 | |
| 20260506233032 | 52 | 240 | 0.0 | 0.0 | 0.00 | 0.00 | 0.00 | 2 | |
| 20260506232532 | 52 | 240 | 0.0 | 0.0 | 0.00 | 0.00 | 0.00 | 2 | |
| 20260506232032 | 52 | 240 | 0.0 | 0.0 | 0.00 | 0.00 | 0.00 | 2 | |
| 20260506231531 | 52 | 240 | 0.0 | 0.0 | 0.00 | 0.00 | 0.00 | 2 | |
| 20260506231032 | 52 | 240 | 0.0 | 0.0 | 0.00 | 0.00 | 0.00 | 2 | |
| 20260506230532 | 53 | 240 | 0.0 | 0.0 | 0.00 | 0.00 | 0.00 | 2 | |
| 20260506230032 | 53 | 240 | 0.0 | 0.0 | 0.00 | 0.00 | 0.00 | 2 | |
| 20260506225532 | 52 | 240 | 0.0 | 0.0 | 0.00 | 0.00 | 0.00 | 2 | |
| 20260506225032 | 52 | 240 | 0.0 | 0.0 | 0.00 | 0.00 | 0.00 | 2 | |
| 20260506224532 | 53 | 240 | 0.0 | 0.0 | 0.00 | 0.00 | 0.00 | 2 | |
| 20260506224032 | 52 | 240 | 0.0 | 0.0 | 0.00 | 0.00 | 0.00 | 2 | |
| 20260506223531 | 52 | 240 | 0.0 | 0.0 | 0.00 | 0.00 | 0.00 | 2 | |
| 20260506223032 | 53 | 240 | 0.0 | 0.0 | 0.00 | 0.00 | 0.00 | 2 | |
| 20260506222532 | 52 | 240 | 0.0 | 0.0 | 0.00 | 0.00 | 0.00 | 2 | |
| 20260506222032 | 52 | 240 | 0.0 | 0.0 | 0.00 | 0.00 | 0.00 | 2 | |
| 20260506221532 | 52 | 240 | 0.0 | 0.0 | 0.00 | 0.00 | 0.00 | 2 | |
| 20260506221032 | 52 | 240 | 0.0 | 0.0 | 0.00 | 0.00 | 0.00 | 2 | |
| 20260506220532 | 53 | 240 | 0.0 | 0.0 | 0.00 | 0.00 | 0.00 | 2 | |
| 20260506220032 | 53 | 240 | 0.0 | 0.0 | 0.00 | 0.00 | 0.00 | 2 | |
| 20260506215532 | 53 | 240 | 0.0 | 0.0 | 0.00 | 0.00 | 0.00 | 2 | |
| 20260506215032 | 53 | 240 | 0.0 | 0.0 | 0.00 | 0.00 | 0.00 | 2 | |
| 20260506214531 | 53 | 240 | 0.0 | 0.0 | 0.00 | 0.00 | 0.00 | 2 | |
| 20260506214032 | 52 | 240 | 0.0 | 0.0 | 0.00 | 0.00 | 0.00 | 2 | |
| 20260506213531 | 52 | 240 | 1.0 | 3.0 | 0.00 | 0.00 | 0.00 | 2 | |
| 20260506213032 | 52 | 298 | 0.0 | 0.0 | 0.00 | 0.00 | 0.00 | 2 | |
| 20260506212531 | 52 | 298 | 0.0 | 0.0 | 0.00 | 0.00 | 0.00 | 2 | |
| 20260506212031 | 52 | 298 | 0.0 | 0.0 | 0.00 | 0.00 | 0.00 | 2 | |
| 20260506211532 | 52 | 298 | 0.0 | 0.0 | 0.00 | 0.00 | 0.00 | 2 | |
| 20260506211032 | 53 | 298 | 0.0 | 0.0 | 0.00 | 0.00 | 0.00 | 2 | |
| 20260506210532 | 53 | 298 | 0.0 | 0.0 | 0.00 | 0.00 | 0.00 | 2 | |
| 20260506210032 | 52 | 298 | 0.0 | 0.0 | 0.00 | 0.00 | 0.00 | 2 | |
| 20260506205532 | 52 | 298 | 0.0 | 0.0 | 0.00 | 0.00 | 0.00 | 2 | |
| 20260506205032 | 52 | 298 | 0.0 | 0.0 | 0.00 | 0.00 | 0.00 | 2 | |
| 20260506204531 | 52 | 298 | 0.0 | 0.0 | 0.00 | 0.00 | 0.00 | 2 | |
| 20260506204032 | 52 | 298 | 0.0 | 0.0 | 0.00 | 0.00 | 0.00 | 2 | |
| 20260506203531 | 53 | 298 | 0.0 | 0.0 | 0.00 | 0.00 | 0.00 | 2 | |
| 20260506203032 | 53 | 298 | 0.0 | 0.0 | 0.00 | 0.00 | 0.00 | 2 | |
| 20260506202532 | 53 | 298 | 0.0 | 0.0 | 0.00 | 0.00 | 0.00 | 2 | |
| 20260506202032 | 53 | 298 | 0.0 | 0.0 | 0.00 | 0.00 | 0.00 | 2 | |
| 20260506201532 | 53 | 298 | 0.0 | 0.0 | 0.00 | 0.00 | 0.00 | 2 |